Regional Weather Roundup
Issued by NWS

Home | Current Version | Previous Version | Text Only | Print | Product List | Glossary On
Versions: 1 2 3 4 5 6 7 8 9 10 11 12 13 14 15 16 17 18 19 20 21 22 23 24 25 26 27 28 29 30 31 32 33 34 35 36 37 38 39 40 41 42 43 44 45 46 47 48 49
000
ASUS46 KPQR 040410
RWROR

OREGON REGIONAL WEATHER ROUNDUP
NATIONAL WEATHER SERVICE PORTLAND OR
900 PM PDT FRI JUL 03 2015

NOTE: "FAIR" INDICATES FEW OR NO CLOUDS BELOW 12,000 FEET WITH
NO SIGNIFICANT WEATHER AND/OR OBSTRUCTIONS TO VISIBILITY.

ORZ001>013-040500-
NORTHWEST OREGON


CITY           SKY/WX    TMP DP  RH WIND       PRES   REMARKS
ASTORIA        CLEAR     60  54  80 W7        29.94S
NEWPORT        CLEAR     55  54  94 N6        29.98F FOG
PORTLAND       PTCLDY    81  58  45 NW7       29.84R
VANCOUVER WA   CLEAR     81  56  42 N6        29.84R
SCAPPOOSE      CLEAR     78  52  40 N9        29.84R
HILLSBORO      CLEAR     80  51  36 NW13      29.84R
AURORA         CLEAR     85  45  24 NW10      29.84R
MCMINNVILLE    CLEAR     74  55  51 SW12      29.85R
SALEM          CLEAR     81  52  36 NW13      29.84R
CORVALLIS      CLEAR     73  52  46 W17G23    29.87S
EUGENE         CLEAR     82  53  36 NW3       29.86R
$$

ORZ021-028-040500-
SOUTHWEST OREGON


CITY           SKY/WX    TMP DP  RH WIND       PRES   REMARKS
NORTH BEND     CLEAR     59  55  88 N9        29.97R
BROOKINGS      CLOUDY    60  60 100 CALM      29.91S
ROSEBURG       MOCLDY    88  49  25 NW10      29.85R
SEXTON SUMMIT  MOCLDY    72  53  51 N8        30.03S
MEDFORD        MOCLDY    91  44  19 CALM      29.85R
$$

ORZ014>016-041-040500-
COLUMBIA GORGE


CITY           SKY/WX    TMP DP  RH WIND       PRES   REMARKS
TROUTDALE      CLEAR     83  58  42 NW3       29.82R
THE DALLES     CLEAR     90  38  16 NW9       29.73R
$$

ORZ029>031-041-044-049-050-061>064-502-503-505>511-040500-
EASTERN OREGON


CITY           SKY/WX    TMP DP  RH WIND       PRES   REMARKS
REDMOND        CLEAR     83  44  25 NW12      29.93R
BEND             N/A    N/A N/A N/A MISG        N/A
PRINEVILLE     CLEAR     82  36  18 N8        29.93S
KLAMATH FALLS  CLOUDY    82  44  26 W9        30.00R
LAKEVIEW       CLOUDY    75  52  43 SE10      30.04R
HERMISTON      CLEAR     91  51  25 W8        29.68R
PENDLETON      CLEAR     85  36  17 N7        29.75R
JOHN DAY       CLEAR     85  32  15 CALM      29.93R
MEACHAM        CLEAR     71  44  37 CALM      29.95R
LA GRANDE      CLEAR     81  41  24 N3        29.85R
BAKER CITY     CLEAR     76  45  33 W7        29.90R
BURNS          MOCLDY    85  33  15 NW10      29.94R
ROME             N/A     91  44  19 SE16      29.90R
ONTARIO        PTCLDY    88  43  20 W3        29.77R
$$



USA.gov is the U.S. government's official web portal to all federal, state and local government web resources and services.